Weather History for Chesapeake, VA

Change the Weather History Date:

Wednesday, November 21, 2012

  Actual Average (KORF) Record (KORF)
Temperature  
Mean Temperature 50 °F 51 °F  
Max Temperature 57 °F 60 °F 80 °F (1991)
Min Temperature 44 °F 43 °F 21 °F (1879)
Degree Days  
Heating Degree Days 14 14  
Month to date heating degree days 233  
Since 1 July heating degree days 390  
Cooling Degree Days 0 0  
Month to date cooling degree days 1  
Year to date cooling degree days 1621  
Moisture  
Dew Point 44 °F    
Average Humidity 82    
Maximum Humidity 100    
Minimum Humidity 63    
Precipitation  
Precipitation 0.00 in 0.10 in 3.31 in (1952)
Month to date precipitation 2.21  
Year to date precipitation 42.33  
Snow  
Snow 0.00 in 0.00 in 0.10 in (1926)
Month to date snowfall 0.0  
Since 1 July snowfall 0.0  
Snow Depth -    
Sea Level Pressure  
Sea Level Pressure 30.12 in    
Wind  
Wind Speed 4 mph (North)    
Max Wind Speed 13 mph    
Max Gust Speed 17 mph    
Visibility 9 miles    
Events      
T = Trace of Precipitation, MM = Missing Value Source: NWS Daily Summary

Daily Weather History Graph

Daily Weather History Graph

Search for Another Location

Airport:

Trip Planner

Search our weather history database for the weather conditions in past years. The results will help you decide how hot, cold, wet, or windy it might be!

Date:

Astronomy

Nov. 21, 2012 Rise Set
Actual Time 6:49 AM EST 4:52 PM EST
Civil Twilight 6:21 AM EST 5:20 PM EST
Nautical Twilight 5:50 AM EST 5:52 PM EST
Astronomical Twilight 5:19 AM EST 6:22 PM EST
Moon 12:59 PM EST (11/21) 12:16 AM EST (11/21)
Length of Visible Light 10h 58m
Length of Day
10h 02m
First Quarter, 61% of the Moon is Illuminated
Nov 21
First Quarter
Nov 28
Full
Dec 6
Last Quarter
Dec 13
New
Dec 20
First Quarter

Hourly Weather History & Observations

Time (EST) Temp. Windchill Dew Point Humidity Pressure Visibility Wind Dir Wind Speed Gust Speed Precip Events Conditions
12:15 AM 48.2 °F - 46.4 °F 93% 30.10 in 10.0 mi North 3.5 mph - N/A   Clear
12:35 AM 48.2 °F - 46.4 °F 93% 30.09 in 10.0 mi Calm Calm - N/A   Scattered Clouds
12:55 AM 48.2 °F - 46.4 °F 93% 30.08 in 10.0 mi Calm Calm - N/A   Mostly Cloudy
1:15 AM 46.4 °F - 44.6 °F 93% 30.08 in 7.0 mi Calm Calm - N/A   Overcast
1:35 AM 44.6 °F 43.1 °F 44.6 °F 100% 30.08 in 7.0 mi NW 3.5 mph - N/A   Mostly Cloudy
1:55 AM 44.6 °F 42.2 °F 44.6 °F 100% 30.08 in 7.0 mi NNW 4.6 mph - N/A   Mostly Cloudy
2:15 AM 46.4 °F 44.3 °F 44.6 °F 93% 30.09 in 7.0 mi NW 4.6 mph - N/A   Overcast
2:35 AM 46.4 °F - 44.6 °F 93% 30.08 in 7.0 mi Calm Calm - N/A   Overcast
2:55 AM 46.4 °F - 44.6 °F 93% 30.09 in 7.0 mi Calm Calm - N/A   Overcast
3:15 AM 46.4 °F 44.3 °F 46.4 °F 100% 30.09 in 7.0 mi NNW 4.6 mph - N/A   Overcast
3:35 AM 46.4 °F 44.3 °F 46.4 °F 100% 30.08 in 10.0 mi NNW 4.6 mph - N/A   Mostly Cloudy
3:55 AM 46.4 °F - 44.6 °F 93% 30.09 in 10.0 mi Calm Calm - N/A   Mostly Cloudy
4:15 AM 46.4 °F 44.3 °F 44.6 °F 93% 30.08 in 10.0 mi North 4.6 mph - N/A   Scattered Clouds
4:35 AM 46.4 °F 45.2 °F 44.6 °F 93% 30.08 in 10.0 mi North 3.5 mph - N/A   Clear
4:55 AM 44.6 °F - 42.8 °F 93% 30.08 in 10.0 mi Calm Calm - N/A   Clear
5:15 AM 44.6 °F - 42.8 °F 93% 30.09 in 10.0 mi Calm Calm - N/A   Clear
5:35 AM 44.6 °F 43.1 °F 42.8 °F 93% 30.09 in 10.0 mi NNW 3.5 mph - N/A   Clear
5:55 AM 44.6 °F 42.2 °F 42.8 °F 93% 30.10 in 10.0 mi NW 4.6 mph - N/A   Clear
6:15 AM 44.6 °F - 42.8 °F 93% 30.10 in 7.0 mi Calm Calm - N/A   Clear
6:35 AM 44.6 °F - 42.8 °F 93% 30.11 in 5.0 mi Calm Calm - N/A   Clear
6:55 AM 44.6 °F - 42.8 °F 93% 30.11 in 5.0 mi Calm Calm - N/A   Clear
7:15 AM 44.6 °F 43.1 °F 42.8 °F 93% 30.12 in 4.0 mi NNW 3.5 mph - N/A   Clear
7:35 AM 44.6 °F - 42.8 °F 93% 30.13 in 5.0 mi Calm Calm - N/A   Clear
7:55 AM 46.4 °F 45.2 °F 44.6 °F 93% 30.13 in 7.0 mi NNW 3.5 mph - N/A   Clear
8:15 AM 48.2 °F - 44.6 °F 87% 30.13 in 10.0 mi North 3.5 mph - N/A   Clear
8:35 AM 50.0 °F - 44.6 °F 82% 30.13 in 10.0 mi North 5.8 mph - N/A   Clear
8:55 AM 51.8 °F - 44.6 °F 76% 30.14 in 10.0 mi North 5.8 mph - N/A   Clear
9:15 AM 51.8 °F - 44.6 °F 76% 30.13 in 10.0 mi NNE 10.4 mph - N/A   Scattered Clouds
9:35 AM 53.6 °F - 46.4 °F 77% 30.14 in 10.0 mi North 8.1 mph - N/A   Overcast
9:55 AM 51.8 °F - 44.6 °F 76% 30.14 in 10.0 mi North 9.2 mph - N/A   Scattered Clouds
10:15 AM 53.6 °F - 44.6 °F 72% 30.14 in 10.0 mi NNE 11.5 mph 16.1 mph N/A   Scattered Clouds
10:35 AM 55.4 °F - 44.6 °F 67% 30.14 in 10.0 mi North 9.2 mph - N/A   Scattered Clouds
10:55 AM 55.4 °F - 46.4 °F 72% 30.14 in 10.0 mi North 10.4 mph 17.3 mph N/A   Scattered Clouds
11:15 AM 55.4 °F - 46.4 °F 72% 30.14 in 10.0 mi North 9.2 mph - N/A   Overcast
11:35 AM 55.4 °F - 46.4 °F 72% 30.13 in 10.0 mi North 6.9 mph - N/A   Overcast
11:55 AM 53.6 °F - 46.4 °F 77% 30.13 in 10.0 mi North 8.1 mph - N/A   Overcast
12:15 PM 53.6 °F - 46.4 °F 77% 30.12 in 10.0 mi NNE 11.5 mph - N/A   Overcast
12:35 PM 55.4 °F - 46.4 °F 72% 30.12 in 10.0 mi North 8.1 mph 16.1 mph N/A   Mostly Cloudy
12:55 PM 55.4 °F - 46.4 °F 72% 30.12 in 10.0 mi NNE 11.5 mph 17.3 mph N/A   Mostly Cloudy
1:15 PM 55.4 °F - 46.4 °F 72% 30.11 in 10.0 mi North 10.4 mph 17.3 mph N/A   Mostly Cloudy
1:35 PM 57.2 °F - 46.4 °F 67% 30.11 in 10.0 mi NNE 9.2 mph - N/A   Mostly Cloudy
1:55 PM 57.2 °F - 44.6 °F 63% 30.11 in 10.0 mi North 12.7 mph 16.1 mph N/A   Mostly Cloudy
2:15 PM 55.4 °F - 44.6 °F 67% 30.12 in 10.0 mi NNE 10.4 mph 17.3 mph N/A   Overcast
2:35 PM 55.4 °F - 44.6 °F 67% 30.12 in 10.0 mi North 9.2 mph - N/A   Mostly Cloudy
2:55 PM 55.4 °F - 44.6 °F 67% 30.12 in 10.0 mi North 8.1 mph - N/A   Scattered Clouds
3:15 PM 55.4 °F - 46.4 °F 72% 30.12 in 10.0 mi North 9.2 mph - N/A   Scattered Clouds
3:35 PM 55.4 °F - 44.6 °F 67% 30.12 in 10.0 mi NNE 5.8 mph - N/A   Scattered Clouds
3:55 PM 53.6 °F - 44.6 °F 72% 30.13 in 10.0 mi North 10.4 mph - N/A   Mostly Cloudy
4:15 PM 53.6 °F - 44.6 °F 72% 30.13 in 10.0 mi North 5.8 mph - N/A   Scattered Clouds
4:35 PM 51.8 °F - 44.6 °F 76% 30.13 in 10.0 mi North 6.9 mph - N/A   Scattered Clouds
4:55 PM 51.8 °F - 44.6 °F 76% 30.14 in 10.0 mi North 5.8 mph - N/A   Scattered Clouds
5:15 PM 51.8 °F - 44.6 °F 76% 30.14 in 10.0 mi North 4.6 mph - N/A   Mostly Cloudy
5:35 PM 51.8 °F - 44.6 °F 76% 30.14 in 10.0 mi North 4.6 mph - N/A   Mostly Cloudy
5:55 PM 50.0 °F - 44.6 °F 82% 30.14 in 10.0 mi North 5.8 mph - N/A   Mostly Cloudy
6:15 PM 50.0 °F - 44.6 °F 82% 30.15 in 10.0 mi North 4.6 mph - N/A   Mostly Cloudy
6:35 PM 50.0 °F - 44.6 °F 82% 30.15 in 10.0 mi NNE 4.6 mph - N/A   Scattered Clouds
6:55 PM 50.0 °F - 44.6 °F 82% 30.15 in 10.0 mi North 5.8 mph - N/A   Scattered Clouds
7:15 PM 50.0 °F - 44.6 °F 82% 30.15 in 10.0 mi North 5.8 mph - N/A   Scattered Clouds
7:35 PM 48.2 °F - 44.6 °F 87% 30.16 in 10.0 mi North 5.8 mph - N/A   Clear
7:55 PM 48.2 °F - 44.6 °F 87% 30.16 in 10.0 mi North 6.9 mph - N/A   Clear
8:15 PM 50.0 °F - 44.6 °F 82% 30.16 in 10.0 mi NNE 9.2 mph - N/A   Scattered Clouds
8:35 PM 50.0 °F - 44.6 °F 82% 30.16 in 10.0 mi North 6.9 mph - N/A   Scattered Clouds
8:55 PM 50.0 °F - 42.8 °F 76% 30.17 in 10.0 mi North 8.1 mph - N/A   Clear
9:15 PM 50.0 °F - 42.8 °F 76% 30.17 in 10.0 mi North 5.8 mph - N/A   Scattered Clouds
9:35 PM 48.2 °F - 42.8 °F 82% 30.16 in 10.0 mi North 5.8 mph - N/A   Scattered Clouds
9:55 PM 48.2 °F - 42.8 °F 82% 30.17 in 10.0 mi North 4.6 mph - N/A   Clear
10:15 PM 48.2 °F - 42.8 °F 82% 30.17 in 10.0 mi North 5.8 mph - N/A   Clear
10:35 PM 48.2 °F - 41.0 °F 76% 30.17 in 10.0 mi North 5.8 mph - N/A   Clear
10:55 PM 46.4 °F 44.3 °F 39.2 °F 76% 30.16 in 10.0 mi North 4.6 mph - N/A   Clear
11:15 PM 48.2 °F - 39.2 °F 71% 30.16 in 10.0 mi North 5.8 mph - N/A   Clear
11:35 PM 46.4 °F 43.5 °F 39.2 °F 76% 30.15 in 10.0 mi North 5.8 mph - N/A   Clear
11:55 PM 46.4 °F 45.2 °F 39.2 °F 76% 30.16 in 10.0 mi North 3.5 mph - N/A   Clear